{"data":{"norad_id":48359,"epoch":"2026-05-25T00:45:16.629408Z","epoch_age_seconds":72001,"freshness":"FRESH","line1":"1 48359U 21038G   26145.03144247  .00006044  00000+0  20621-3 0  9993","line2":"2 48359  53.1603   3.4021 0001148  92.4788 267.6345 15.31722279278763","mean_motion":15.31722279,"eccentricity":0.0001148,"inclination_deg":53.1603,"raan_deg":3.4021,"arg_perigee_deg":92.4788,"mean_anomaly_deg":267.6345,"bstar":0.00020621,"rev_number":27876,"period_min":94.011820533166,"perigee_km":469.88734003595,"apogee_km":471.45982694592,"semimajor_km":6848.8105834909,"source":"CELESTRAK","updated_at":"2026-05-25T13:38:16.685498Z"}}